Home > Weather > Al-Jamiliyah > Past weeks

Flag for Qatar Past Weather in Al-Jamiliyah, Qatar — Yesterday and Last 2 Weeks

Now
102 °F

Sunny.


Feels Like: 110 °F
Forecast: 92 / 104 °F
Wind: 12 mph from East

Location: Doha International Airport

Current Time: Jul 29, 2016 at 1:17:20 PM

Latest Report: Jul 29, 2016 at 12:00 PM


Visibility: 10 mi

Pressure: 29.53 "Hg

Humidity: 35%

Dew Point: 70 °F

Location of Al-JamiliyahLocation

Past Weather in Al-Jamiliyah — Graph

°F

Al-Jamiliyah Temperature Yesterday

Maximum temperature yesterday: 100 °F (at 11:00 AM)
Minimum temperature yesterday: 93 °F (at 12:00 AM)
Average temperature yesterday: 96 °F

High & Low Weather Summary for the Past Weeks

 TemperatureHumidityPressure
High117 °F (Jul 20, 1:00 PM)80% (Jul 18, 4:00 AM)29.56 "Hg (Jul 18, 4:00 AM)
Low91 °F (Jul 15, 3:00 AM)5% (Jul 14, 12:00 PM)29.33 "Hg (Jul 23, 1:00 PM)
Average99 °F51%29.46 "Hg
* Reported Jul 14 12:00 PM — Jul 29 12:00 PM, Al-Jamiliyah, Weather by CustomWeather, © 2016

Note: Actual official high and low records may vary slightly from our data, if they occured in-between our weather recording intervals... More about our weather records

Advertising

Al-Jamiliyah Weather History for the Previous 24 Hours

Scroll right to see more
 ConditionsComfort  
Time TempWeatherWind HumidityBarometerVisibility
12:00 PM
Fri, Jul 29
102 °FSunny.12 mph35%29.53 "Hg10 mi
11:00 AM100 °FPassing clouds.12 mph50%29.56 "HgN/A
10:00 AM99 °FPassing clouds.12 mph53%29.56 "HgN/A
9:00 AM99 °FSunny.10 mph50%29.56 "Hg10 mi
8:00 AM97 °FPassing clouds.12 mph60%29.56 "HgN/A
7:00 AM97 °FScattered clouds.10 mph60%29.53 "HgN/A
6:00 AM95 °FScattered clouds.9 mph63%29.53 "HgN/A
5:00 AM95 °FSunny.8 mph60%29.53 "Hg10 mi
4:00 AM93 °FClear.12 mph63%29.50 "Hg10 mi
3:00 AM95 °FClear.9 mph60%29.50 "Hg10 mi
2:00 AM95 °FClear.6 mph56%29.50 "Hg10 mi
1:00 AM97 °FClear.9 mph50%29.47 "Hg10 mi
12:00 AM97 °FClear.5 mph47%29.50 "Hg10 mi
11:00 PM
Thu, Jul 28
95 °FClear.6 mph56%29.50 "Hg10 mi
10:00 PM95 °FClear.9 mph56%29.50 "Hg10 mi
9:00 PM95 °FClear.12 mph56%29.50 "Hg10 mi
8:00 PM95 °FClear.13 mph60%29.50 "Hg10 mi
7:00 PM95 °FClear.13 mph60%29.50 "Hg5 mi
6:00 PM97 °FClear.12 mph53%29.47 "Hg5 mi
5:00 PM97 °FClear.12 mph53%29.47 "Hg5 mi
4:00 PM99 °FClear.13 mph50%29.47 "Hg5 mi
3:00 PM99 °FClear.13 mph50%29.50 "Hg5 mi
2:00 PM100 °FClear.12 mph47%29.50 "Hg6 mi
1:00 PM100 °FPassing clouds.12 mph50%29.50 "HgN/A
Weather by CustomWeather, © 2016

See weather overviewHow to use our weather pages